Location: Keppel Henge
(44.7900°N, 80.9447°W)
Time: 14:00:21
(UTC-04:00)

Tiangong 2 - Pass Details

Date: 07 October 2017
Orbit: 388 x 392 km, 42.8° (Epoch: 20 October)

Event Time Altitude Azimuth Distance (km) Brightness Sun altitude
Exits shadow 06:45:28 - 216° (SW) 2,192 4.5 -8.6°
Reaches altitude 10° 06:47:45 10° 198° (SSW) 1,417 3.8 -8.2°
Maximum altitude 06:50:01 18° 152° (SSE) 1,041 3.6 -7.8°
Drops below altitude 10° 06:52:17 10° 107° (ESE) 1,423 5.4 -7.4°
Sets 06:54:48 0° 88° (E) 2,282 7.7 -7.0°
